Weather History for Boscobel, WI

Change the Weather History Date:

Monday, May 6, 2013

  Actual Average (KPDC) Record (KPDC)
Temperature  
Mean Temperature 62 °F -  
Max Temperature 80 °F 69 °F 92 °F (1949)
Min Temperature 44 °F 43 °F 22 °F (1989)
Degree Days  
Heating Degree Days 4    
Growing Degree Days 12 (Base 50)    
Moisture  
Dew Point 43 °F    
Average Humidity 59    
Maximum Humidity 93    
Minimum Humidity 21    
Precipitation  
Precipitation 0.00 in - - ()
Sea Level Pressure  
Sea Level Pressure 30.04 in    
Wind  
Wind Speed 1 mph (NNE)    
Max Wind Speed 8 mph    
Max Gust Speed -    
Visibility 9 miles    
Events      
Averages and records for this station are not official NWS values.
T = Trace of Precipitation, MM = Missing Value Source: NWS Daily Summary

Daily Weather History Graph

Daily Weather History Graph

Search for Another Location

Airport:

Trip Planner

Search our weather history database for the weather conditions in past years. The results will help you decide how hot, cold, wet, or windy it might be!

Date:

Astronomy

May. 06, 2013 Rise Set
Actual Time 5:49 AM CDT 8:10 PM CDT
Civil Twilight 5:17 AM CDT 8:41 PM CDT
Nautical Twilight 4:38 AM CDT 9:21 PM CDT
Astronomical Twilight 3:54 AM CDT 10:05 PM CDT
Moon 3:56 AM CDT (5/6) 5:06 PM CDT (5/6)
Length of Visible Light 15h 24m
Length of Day
14h 20m
Waning Crescent, 11% of the Moon is Illuminated
May 6
Waning Crescent
May 9
New
May 17
First Quarter
May 24
Full
May 31
Last Quarter

Hourly Weather History & Observations

Time (CDT) Temp. Dew Point Humidity Pressure Visibility Wind Dir Wind Speed Gust Speed Precip Events Conditions
12:53 AM 48.9 °F 46.0 °F 90% 30.04 in 10.0 mi Calm Calm - N/A   Clear
1:53 AM 48.0 °F 45.0 °F 89% 30.05 in 10.0 mi Calm Calm - N/A   Scattered Clouds
2:53 AM 46.9 °F 45.0 °F 93% 30.05 in 10.0 mi Calm Calm - N/A   Clear
3:53 AM 45.0 °F 43.0 °F 93% 30.06 in 9.0 mi Calm Calm - N/A   Clear
4:53 AM 45.0 °F 43.0 °F 93% 30.07 in 5.0 mi Calm Calm - N/A   Clear
5:53 AM 44.1 °F 42.1 °F 93% 30.08 in 4.0 mi Calm Calm - N/A   Clear
6:11 AM 44.6 °F 42.8 °F 93% 30.07 in 2.5 mi Calm Calm - N/A   Clear
6:19 AM 44.6 °F 42.8 °F 93% 30.07 in 4.0 mi Calm Calm - N/A   Clear
6:53 AM 46.0 °F 44.1 °F 93% 30.09 in 8.0 mi Calm Calm - N/A   Clear
7:53 AM 53.1 °F 48.9 °F 86% 30.10 in 10.0 mi Calm Calm - N/A   Unknown
8:53 AM 61.0 °F 48.0 °F 62% 30.10 in 10.0 mi Calm Calm - N/A   Clear
9:53 AM 66.9 °F 46.9 °F 49% 30.09 in 10.0 mi Calm Calm - N/A   Clear
10:53 AM 72.0 °F 39.0 °F 30% 30.08 in 10.0 mi ESE 3.5 mph - N/A   Clear
11:53 AM 75.9 °F 39.0 °F 26% 30.06 in 10.0 mi North 6.9 mph - N/A   Clear
12:53 PM 78.1 °F 39.9 °F 25% 30.04 in 10.0 mi NNE 8.1 mph - N/A   Clear
1:53 PM 77.0 °F 37.9 °F 24% 30.03 in 10.0 mi NNE 6.9 mph - N/A   Clear
2:53 PM 79.0 °F 37.9 °F 23% 30.01 in 10.0 mi NNW 6.9 mph - N/A   Clear
3:53 PM 78.1 °F 37.0 °F 23% 30.00 in 10.0 mi Variable 3.5 mph - N/A   Clear
4:53 PM 79.0 °F 36.0 °F 21% 29.99 in 10.0 mi NNE 4.6 mph - N/A   Clear
5:53 PM 75.9 °F 37.0 °F 24% 29.99 in 10.0 mi ENE 4.6 mph - N/A   Overcast
6:53 PM 75.0 °F 37.9 °F 26% 29.99 in 10.0 mi Calm Calm - N/A   Clear
7:53 PM 70.0 °F 42.1 °F 36% 29.99 in 10.0 mi Calm Calm - N/A   Overcast
8:53 PM 64.9 °F 45.0 °F 48% 30.00 in 10.0 mi Calm Calm - N/A   Clear
9:53 PM 59.0 °F 46.9 °F 64% 30.02 in 10.0 mi Calm Calm - N/A   Clear
10:53 PM 57.0 °F 46.0 °F 67% 30.02 in 10.0 mi Calm Calm - N/A   Clear
11:53 PM 54.0 °F 46.0 °F 75% 30.03 in 10.0 mi Calm Calm - N/A   Clear